Location: Albany
(35.0170°S, 117.8920°E)
Time: 00:29:44
(UTC+08:00)

S-56A Canister/Altair - Pass Details

Date: 18 June 2021
Orbit: 632 x 2501 km, 38.9° (Epoch: 24 July)

Event Time Altitude Azimuth Distance (km) Brightness Sun altitude
Rises 22:35:37 0° 248° (WSW) 5,852 12.4 -66.5°
Reaches altitude 10° 22:39:55 10° 252° (WSW) 4,625 11.7 -67.3°
Enters shadow 22:42:04 16° 255° (WSW) 4,013 11.3 -67.7°
